Weather History for KMCN - June, 2012

Change the Weather History Date:

Saturday, June 30, 2012

  Actual Average Record
Temperature  
Mean Temperature 91 °F 81 °F  
Max Temperature 108 °F 92 °F 108 °F (2012)
Min Temperature 73 °F 70 °F 58 °F (1970)
Degree Days  
Heating Degree Days 0 0  
Month to date heating degree days 0 0  
Since 1 June heating degree days 0 0  
Since 1 July heating degree days 1850 2322  
Cooling Degree Days 26 16  
Month to date cooling degree days 372 419  
Year to date cooling degree days 865 732  
Since 1 June cooling degree days 372 419  
Growing Degree Days 40 (Base 50)    
Moisture  
Dew Point 67 °F    
Average Humidity 54    
Maximum Humidity 87    
Minimum Humidity 21    
Precipitation  
Precipitation 0.00 in 0.15 in 2.15 in (2010)
Month to date precipitation 3.04 4.06  
Year to date precipitation 13.74 22.89  
Sea Level Pressure  
Sea Level Pressure 29.86 in    
Wind  
Wind Speed 5 mph (WSW)    
Max Wind Speed 12 mph    
Max Gust Speed 15 mph    
Visibility 9 miles    
Events      
T = Trace of Precipitation, MM = Missing Value Source: NWS Daily Summary

Daily Weather History Graph

Daily Weather History Graph

Search for Another Location

Airport or City:

Trip Planner

Search our weather history database for the weather conditions in past years. The results will help you decide how hot, cold, wet, or windy it might be!

Date:

Astronomy

Jun. 30, 2012 Rise Set
Actual Time 6:30 AM EDT 8:46 PM EDT
Civil Twilight 6:01 AM EDT 9:14 PM EDT
Nautical Twilight 5:26 AM EDT 9:49 PM EDT
Astronomical Twilight 4:49 AM EDT 10:27 PM EDT
Moon 5:44 PM EDT (6/30) 3:20 AM EDT (6/30)
Length of Visible Light 15h 13m
Length of Day
14h 16m
Waxing Gibbous, 87% of the Moon is Illuminated
Jun 30
Waxing Gibbous
Jul 3
Full
Jul 10
Last Quarter
Jul 19
New
Jul 26
First Quarter

Hourly Weather History & Observations

Time (EDT) Temp. Heat Index Dew Point Humidity Pressure Visibility Wind Dir Wind Speed Gust Speed Precip Events Conditions
12:53 AM 84.9 °F 88.8 °F 69.1 °F 59% 29.87 in 9.0 mi West 6.9 mph - N/A   Clear
1:53 AM 82.9 °F 87.0 °F 70.0 °F 65% 29.86 in 9.0 mi West 6.9 mph - N/A   Clear
2:53 AM 81.0 °F 84.4 °F 70.0 °F 69% 29.84 in 9.0 mi WSW 3.5 mph - N/A   Clear
3:53 AM 79.0 °F - 70.0 °F 74% 29.84 in 9.0 mi SW 3.5 mph - N/A   Clear
4:53 AM 77.0 °F - 70.0 °F 79% 29.84 in 9.0 mi Calm Calm - N/A   Clear
5:53 AM 73.9 °F - 70.0 °F 87% 29.86 in 8.0 mi Calm Calm - N/A   Clear
7:53 AM 78.1 °F - 71.1 °F 79% 29.88 in 5.0 mi WSW 5.8 mph - N/A   Haze
8:53 AM 84.9 °F 90.7 °F 72.0 °F 65% 29.89 in 6.0 mi WNW 5.8 mph - N/A   Haze
9:53 AM 89.1 °F 95.0 °F 71.1 °F 55% 29.89 in 7.0 mi WNW 6.9 mph - N/A   Clear
10:53 AM 93.9 °F 100.3 °F 70.0 °F 46% 29.88 in 8.0 mi Calm Calm - N/A   Clear
11:53 AM 99.0 °F 103.5 °F 66.9 °F 35% 29.88 in 9.0 mi Variable 6.9 mph - N/A   Clear
12:53 PM 100.9 °F 106.0 °F 66.9 °F 33% 29.87 in 9.0 mi Variable 6.9 mph - N/A   Clear
1:53 PM 104.0 °F 107.4 °F 64.0 °F 27% 29.86 in 10.0 mi North 6.9 mph - N/A   Clear
2:53 PM 105.1 °F 107.8 °F 63.0 °F 25% 29.84 in 10.0 mi Variable 6.9 mph - N/A   Clear
3:53 PM 106.0 °F 106.4 °F 57.9 °F 21% 29.83 in 10.0 mi Variable 3.5 mph - N/A   Clear
4:53 PM 106.0 °F 107.1 °F 60.1 °F 22% 29.82 in 10.0 mi Variable 3.5 mph - N/A   Clear
5:53 PM 107.1 °F 108.9 °F 60.1 °F 22% 29.81 in 10.0 mi WSW 5.8 mph - N/A   Clear
6:53 PM 104.0 °F 105.3 °F 61.0 °F 24% 29.82 in 10.0 mi West 6.9 mph - N/A   Clear
7:53 PM 100.0 °F 101.2 °F 61.0 °F 28% 29.83 in 10.0 mi WSW 4.6 mph - N/A   Clear
8:53 PM 96.1 °F 101.6 °F 69.1 °F 41% 29.84 in 9.0 mi SW 8.1 mph - N/A   Clear
9:53 PM 93.9 °F 100.3 °F 70.0 °F 46% 29.86 in 10.0 mi SW 5.8 mph - N/A   Clear
10:53 PM 90.0 °F 94.5 °F 69.1 °F 50% 29.88 in 10.0 mi WSW 4.6 mph - N/A   Clear
11:53 PM 88.0 °F 92.1 °F 69.1 °F 53% 29.89 in 10.0 mi SW 5.8 mph - N/A   Clear